Home   Weather   Aarau   Past weeks

Flag for Switzerland Past Weather in Aarau, Aargau, Switzerland — Yesterday and Last 2 Weeks

Now
87 °F

Pleasantly warm.


Feels Like: 85 °F
Forecast: 64 / 85 °F
Wind: 3 mph from North

Location: Wynau

Current Time: May 28, 2017 at 6:44:13 pm

Latest Report: May 28, 2017 at 5:00 pm


Visibility: N/A

Pressure: 29.98 "Hg

Humidity: 28%

Dew Point: 50 °F

Location of AarauLocation

Past Weather in Aarau — Graph

°F

Aarau Temperature Yesterday

Maximum temperature yesterday: 84 °F (at 7:00 pm)
Minimum temperature yesterday: 50 °F (at 6:00 am)
Average temperature yesterday: 67 °F

High & Low Weather Summary for the Past Weeks

 TemperatureHumidityPressure
High87 °F (May 28, 5:00 pm)100% (May 20, 12:00 am)30.43 "Hg (May 20, 12:00 am)
Low39 °F (May 20, 3:00 am)28% (May 28, 5:00 pm)29.79 "Hg (May 18, 8:00 pm)
Average61 °F70%30.13 "Hg
* Reported May 13 5:00 pm — May 28 5:00 pm, Aarau. Weather by CustomWeather, © 2017

Note: Actual official high and low records may vary slightly from our data, if they occured in-between our weather recording intervals... More about our weather records

Advertising

Aarau Weather History for the Previous 24 Hours

Scroll right to see more
 ConditionsComfort  
Time TempWeatherWind HumidityBarometerVisibility
5:00 pm
Sun, May 28
87 °FPleasantly warm.3 mph28%29.98 "HgN/A
4:00 pm86 °FPleasantly warm.1 mph29%29.99 "HgN/A
3:00 pm86 °FPleasantly warm.3 mph33%30.00 "HgN/A
2:00 pm83 °FPleasantly warm.2 mph40%30.02 "HgN/A
1:00 pm82 °FWarm.2 mph45%30.04 "HgN/A
12:00 pm79 °FWarm.2 mph53%30.06 "HgN/A
11:00 am76 °FMild.1 mph56%30.07 "HgN/A
10:00 am72 °FMild.2 mph63%30.09 "HgN/A
9:00 am68 °FMild.2 mph75%30.11 "HgN/A
8:00 am62 °FCool.No wind85%30.13 "HgN/A
7:00 am58 °FCool.1 mph90%30.14 "HgN/A
6:00 am57 °FCool.1 mph96%30.13 "HgN/A
5:00 am57 °FCool.1 mph95%30.13 "HgN/A
4:00 am58 °FCool.2 mph95%30.13 "HgN/A
3:00 am59 °FCool.1 mph92%30.12 "HgN/A
2:00 am60 °FCool.No wind87%30.12 "HgN/A
1:00 am60 °FCool.2 mph90%30.12 "HgN/A
12:00 am62 °FCool.1 mph89%30.10 "HgN/A
11:00 pm
Sat, May 27
64 °FMild.1 mph82%30.09 "HgN/A
10:00 pm67 °FMild.1 mph75%30.07 "HgN/A
9:00 pm71 °FMild.1 mph65%30.03 "HgN/A
8:00 pm75 °FMild.1 mph55%30.01 "HgN/A
7:00 pm84 °FPleasantly warm.3 mph31%29.97 "HgN/A
6:00 pm84 °FPleasantly warm.1 mph33%29.97 "HgN/A
Weather by CustomWeather, © 2017

See weather overviewHow to use our weather pages